Fairbanks, AK

4:18 AM AKDT on July 29, 2017 (GMT -0800)
Fairbanks International

Weather History for PAFA - September, 2011

Change the Weather History Date:

Friday, September 23, 2011

  Actual Average Record
Temperature  
Mean Temperature 49 °F 41 °F  
Max Temperature 55 °F 51 °F 72 °F (1940)
Min Temperature 43 °F 32 °F 7 °F (1992)
Degree Days  
Heating Degree Days 16 24  
Month to date heating degree days 301 424  
Since 1 July heating degree days 641 813  
Cooling Degree Days 0 0  
Month to date cooling degree days 0 0  
Year to date cooling degree days 39 61  
Moisture  
Dew Point 36 °F    
Average Humidity 66    
Maximum Humidity 93    
Minimum Humidity 49    
Precipitation  
Precipitation 0.00 in 0.03 in 0.29 in (1961)
Month to date precipitation 0.62 0.89  
Year to date precipitation 7.78 8.46  
Snow  
Snow 0.00 in 0.10 in 1.40 in (1924)
Month to date snowfall 0.0 1.0  
Since 1 July snowfall 0.0 1.0  
Since 1 September snowfall 0.0 1.0  
Snow Depth 0.00 in    
Sea Level Pressure  
Sea Level Pressure 29.35 in    
Wind  
Wind Speed 6 mph (NNE)    
Max Wind Speed 13 mph    
Max Gust Speed -    
Visibility 10 miles    
Events      
T = Trace of Precipitation, MM = Missing Value Source: NWS Daily Summary

Daily Weather History Graph

Daily Weather History Graph

Search for Another Location

Airport or City:

Trip Planner

Search our weather history database for the weather conditions in past years. The results will help you decide how hot, cold, wet, or windy it might be!

Date:

Astronomy

Sep. 23, 2011 Rise Set
Actual Time 7:36 AM AKDT 7:48 PM AKDT
Civil Twilight 6:47 AM AKDT 8:37 PM AKDT
Nautical Twilight 5:47 AM AKDT 9:37 PM AKDT
Astronomical Twilight 4:38 AM AKDT 10:45 PM AKDT
Moon 1:41 AM AKDT (9/23) 6:35 PM AKDT (9/23)
Length of Visible Light 13h 49m
Length of Day
12h 11m
Waning Crescent, 18% of the Moon is Illuminated
Sep 23
Waning Crescent
Sep 27
New
Oct 3
First Quarter
Oct 11
Full
Oct 19
Last Quarter

Hourly Weather History & Observations

Time (AKDT) Temp. Windchill Dew Point Humidity Pressure Visibility Wind Dir Wind Speed Gust Speed Precip Events Conditions
12:53 AM 46.9 °F - 45.0 °F 93% 29.33 in 10.0 mi Calm Calm - N/A   Overcast
1:53 AM 48.0 °F - 43.0 °F 83% 29.33 in 10.0 mi Calm Calm - N/A   Overcast
2:53 AM 45.0 °F 43.5 °F 42.1 °F 90% 29.33 in 10.0 mi NE 3.5 mph - N/A   Mostly Cloudy
3:53 AM 44.1 °F 40.8 °F 39.9 °F 85% 29.32 in 10.0 mi North 5.8 mph - N/A   Mostly Cloudy
4:53 AM 45.0 °F 41.2 °F 37.9 °F 76% 29.31 in 10.0 mi North 6.9 mph - N/A   Mostly Cloudy
5:53 AM 44.1 °F 40.1 °F 37.9 °F 79% 29.31 in 10.0 mi North 6.9 mph - N/A   Mostly Cloudy
6:53 AM 46.0 °F 42.5 °F 37.9 °F 73% 29.31 in 10.0 mi North 6.9 mph - N/A   Mostly Cloudy
7:53 AM 46.0 °F 41.9 °F 37.9 °F 73% 29.31 in 10.0 mi North 8.1 mph - N/A   Overcast
8:53 AM 46.9 °F - 39.0 °F 74% 29.32 in 10.0 mi North 10.4 mph - N/A   Overcast
9:53 AM 48.0 °F - 39.0 °F 71% 29.32 in 10.0 mi North 10.4 mph - N/A   Mostly Cloudy
10:53 AM 51.1 °F - 37.0 °F 59% 29.32 in 10.0 mi North 11.5 mph - N/A   Mostly Cloudy
11:53 AM 51.1 °F - 37.0 °F 59% 29.33 in 10.0 mi North 8.1 mph - N/A   Mostly Cloudy
12:53 PM 52.0 °F - 35.1 °F 53% 29.33 in 10.0 mi East 9.2 mph - N/A   Mostly Cloudy
1:53 PM 52.0 °F - 35.1 °F 53% 29.34 in 10.0 mi East 8.1 mph - N/A   Mostly Cloudy
2:53 PM 53.1 °F - 35.1 °F 50% 29.35 in 10.0 mi East 3.5 mph - N/A   Mostly Cloudy
3:53 PM 54.0 °F - 35.1 °F 49% 29.35 in 10.0 mi East 6.9 mph - N/A   Mostly Cloudy
4:53 PM 52.0 °F - 34.0 °F 50% 29.37 in 10.0 mi NNE 11.5 mph - N/A   Mostly Cloudy
5:53 PM 50.0 °F - 33.1 °F 52% 29.38 in 10.0 mi NNE 10.4 mph - N/A   Mostly Cloudy
6:53 PM 48.0 °F - 32.0 °F 54% 29.39 in 10.0 mi NNE 11.5 mph - N/A   Mostly Cloudy
7:53 PM 46.0 °F 40.2 °F 32.0 °F 58% 29.41 in 10.0 mi NNE 12.7 mph - N/A   Mostly Cloudy
8:53 PM 44.1 °F 38.6 °F 30.9 °F 60% 29.42 in 10.0 mi NNE 10.4 mph - N/A   Mostly Cloudy
9:53 PM 44.1 °F 40.1 °F 30.9 °F 60% 29.43 in 10.0 mi North 6.9 mph - N/A   Mostly Cloudy
10:53 PM 44.1 °F 39.5 °F 30.0 °F 58% 29.44 in 10.0 mi North 8.1 mph - N/A   Mostly Cloudy
11:53 PM 43.0 °F 39.5 °F 30.9 °F 62% 29.45 in 10.0 mi North 5.8 mph - N/A   Mostly Cloudy